Home   Weather   Provo   Past weeks

Flag for USA Past Weather in Provo, Utah, USA — Yesterday and Last 2 Weeks

Now
32 °F

Passing clouds.


Feels Like: 26 °F
Forecast: 28 / 53 °F
Wind: 6 mph from South

Location: Provo Municipal

Current Time: Apr 29, 2017 at 5:41:10 am

Latest Report: Apr 29, 2017 at 4:56 am


Visibility: 10 mi

Pressure: 30.09 "Hg (25.30 "Hg at 1386m altitude)

Humidity: 92%

Dew Point: 30 °F

Location of ProvoLocation

Past Weather in Provo — Graph

°F

Provo Temperature Yesterday

Maximum temperature yesterday: 43 °F (at 3:27 pm)
Minimum temperature yesterday: 34 °F (at 6:58 am)
Average temperature yesterday: 39 °F

High & Low Weather Summary for the Past Weeks

 TemperatureHumidityPressure
High72 °F (Apr 17, 1:58 pm)93% (Apr 19, 1:56 am)30.28 "Hg (Apr 19, 1:56 am)
Low33 °F (Apr 22, 5:56 am)17% (Apr 17, 2:58 pm)29.66 "Hg (Apr 24, 5:56 pm)
Average48 °F62%29.97 "Hg
* Reported Apr 14 3:56 am — Apr 29 3:56 am, Provo, Weather by CustomWeather, © 2017

Note: Actual official high and low records may vary slightly from our data, if they occured in-between our weather recording intervals... More about our weather records

Advertising

Provo Weather History for the Previous 24 Hours

Scroll right to see more
 ConditionsComfort  
Time TempWeatherWind HumidityBarometerVisibility
3:56 am
Sat, Apr 29
33 °FClear.5 mph88%30.06 "Hg10 mi
2:56 am35 °FPassing clouds.5 mph85%30.06 "Hg10 mi
1:56 am36 °FPassing clouds.5 mph79%30.04 "Hg10 mi
12:56 am38 °FPassing clouds.5 mph76%30.03 "Hg10 mi
11:56 pm
Fri, Apr 28
39 °FPassing clouds.9 mph76%30.02 "Hg10 mi
10:56 pm40 °FPassing clouds.12 mph77%30.00 "Hg10 mi
8:56 pm41 °FClear.17 mph76%29.97 "Hg10 mi
7:58 pm41 °FBroken clouds.22 mph76%29.95 "Hg10 mi
6:58 pm43 °FBroken clouds.18 mph71%29.94 "Hg10 mi
5:58 pm41 °FMostly cloudy.28 mph76%29.94 "Hg10 mi
4:58 pm39 °FMostly cloudy.28 mph81%29.93 "Hg10 mi
3:58 pm39 °FLight rain. Mostly cloudy.28 mph81%29.93 "Hg7 mi
3:27 pm43 °FBroken clouds.21 mph81%29.93 "Hg10 mi
2:58 pm39 °FLight rain. Mostly cloudy.24 mph87%29.94 "Hg5 mi
2:01 pm41 °FScattered clouds.23 mph70%29.93 "Hg10 mi
1:20 pm39 °FLight rain. Broken clouds.20 mph81%29.92 "Hg10 mi
12:58 pm39 °FScattered showers. More clouds than sun.13 mph75%29.93 "Hg10 mi
11:58 am39 °FMore clouds than sun.17 mph61%29.93 "Hg10 mi
10:58 am41 °FScattered clouds.17 mph57%29.90 "Hg10 mi
9:58 am41 °FBroken clouds.17 mph57%29.90 "Hg10 mi
8:56 am38 °FPassing clouds.6 mph68%29.89 "Hg10 mi
7:58 am36 °FBroken clouds.13 mph75%29.89 "Hg10 mi
6:58 am34 °FBroken clouds.13 mph81%29.87 "Hg10 mi
5:56 am34 °FPassing clouds.13 mph79%29.87 "Hg10 mi
Weather by CustomWeather, © 2017

See weather overviewHow to use our weather pages